Location: Unspecified
(0.0000°N, 0.0000°E)
Time: 11:14:02
(UTC+00:00)

ARIANE 6 FM1 Upper Stage - Pass Details

Date: 26 February 2026
Orbit: 523 x 607 km, 62.0° (Epoch: 05 March)

Event Time Altitude Azimuth Distance (km) Brightness Sun altitude
Rises 19:26:40 0° 302° (WNW) 2,685 6.9 -18.3°
Reaches altitude 10° 19:29:46 10° 276° (W) 1,815 6.4 -19.0°
Maximum altitude 19:31:54 14° 244° (WSW) 1,596 6.0 -19.5°
Drops below altitude 10° 19:34:04 10° 212° (SSW) 1,847 5.8 -20.1°
Sets 19:37:18 0° 186° (S) 2,768 6.4 -20.9°
